Weather History for Amsterdam Airport Schiphol, Netherlands

Change the Weather History Date:

Friday, April 18, 2014

  Actual Average Record
Temperature  
Mean Temperature 47 °F -  
Max Temperature 53 °F 59 °F - ()
Min Temperature 41 °F 44 °F - ()
Degree Days  
Heating Degree Days 18    
Moisture  
Dew Point 40 °F    
Average Humidity 73    
Maximum Humidity 87    
Minimum Humidity 53    
Precipitation  
Precipitation 0.02 in - - ()
Sea Level Pressure  
Sea Level Pressure 30.01 in    
Wind  
Wind Speed 11 mph ()    
Max Wind Speed 18 mph    
Max Gust Speed 24 mph    
Visibility 8.4 miles    
Events Rain    
T = Trace of Precipitation, MM = Missing Value Source: Averaged Metar Reports

Daily Weather History Graph

Daily Weather History Graph

Search for Another Location

Airport:

Trip Planner

Search our weather history database for the weather conditions in past years. The results will help you decide how hot, cold, wet, or windy it might be!

Date:

Astronomy

Apr. 18, 2014 Rise Set
Actual Time 6:37 AM CEST 8:44 PM CEST
Civil Twilight 6:00 AM CEST 9:20 PM CEST
Nautical Twilight 5:14 AM CEST 10:07 PM CEST
Astronomical Twilight 4:22 AM CEST 11:00 PM CEST
Moon No Moon Rise 8:29 AM CEST (4/18)
Length of Visible Light 15h 20m
Length of Day
14h 06m
Waning Gibbous, 89% of the Moon is Illuminated
Apr 18
Waning Gibbous
Apr 22
Last Quarter
Apr 29
New
May 7
First Quarter
May 14
Full

Hourly Weather History & Observations

Time (CEST) Temp. Windchill Dew Point Humidity Pressure Visibility Wind Dir Wind Speed Gust Speed Precip Events Conditions
12:00 AM 48 °F - 44 °F 81% 29.97 in 13 mi NW 13.4 mph - -   Partly Cloudy
12:25 AM 48.2 °F - 42.8 °F 82% 29.95 in - NW 12.7 mph - N/A   Clear
12:55 AM 44.6 °F 39.7 °F 41.0 °F 87% 29.95 in - NW 9.2 mph - N/A   Clear
1:00 AM 45 °F - 41 °F 82% 29.97 in 14 mi NW 8.9 mph - -   Partly Cloudy
1:25 AM 46.4 °F 42.9 °F 42.8 °F 87% 29.95 in - NW 6.9 mph - N/A   Clear
1:55 AM 46.4 °F 41.5 °F 39.2 °F 76% 29.95 in - NNW 10.4 mph - N/A   Clear
2:00 AM 46 °F - 39 °F 69% 29.96 in 16 mi NNW 8.9 mph - -   Partly Cloudy
2:25 AM 42.8 °F 38.0 °F 39.2 °F 87% 29.95 in - NW 8.1 mph - N/A   Clear
2:55 AM 42.8 °F 38.0 °F 39.2 °F 87% 29.95 in 6.2 mi NW 8.1 mph - N/A   Partly Cloudy
3:00 AM 44 °F - 39 °F 75% 29.96 in 15 mi NW 11.2 mph - -   Scattered Clouds
3:25 AM 44.6 °F 39.7 °F 39.2 °F 81% 29.95 in 6.2 mi NNW 9.2 mph - N/A   Partly Cloudy
3:55 AM 44.6 °F 40.2 °F 39.2 °F 81% 29.95 in 6.2 mi NW 8.1 mph - N/A Rain Light Rain Showers
4:00 AM 45 °F - 40 °F 75% 29.96 in 14 mi NNW 8.9 mph - - Rain Rain Showers
4:25 AM 44.6 °F 38.4 °F 41.0 °F 87% 29.95 in 6.2 mi North 12.7 mph - N/A   Scattered Clouds
4:55 AM 44.6 °F 39.7 °F 41.0 °F 87% 29.95 in 6.2 mi NNW 9.2 mph - N/A   Mostly Cloudy
5:00 AM 45 °F - 41 °F 80% 29.97 in 13 mi NNW 8.9 mph - - Rain Rain
5:25 AM 44.6 °F 40.2 °F 41.0 °F 87% 29.95 in 6.2 mi NW 8.1 mph - N/A Rain Light Rain Showers
5:55 AM 44.6 °F 39.7 °F 41.0 °F 87% 29.95 in 6.2 mi NNW 9.2 mph - N/A   Partly Cloudy
6:00 AM 43 °F - 40 °F 83% 29.97 in 17 mi NNW 8.9 mph - - Rain Rain
6:25 AM 44.6 °F 39.7 °F 39.2 °F 81% 29.95 in 6.2 mi NNW 9.2 mph - N/A   Scattered Clouds
6:55 AM 44.6 °F 39.7 °F 39.2 °F 81% 29.95 in 6.2 mi NNW 9.2 mph - N/A   Scattered Clouds
7:00 AM 45 °F - 39 °F 74% 29.98 in 11 mi NNW 8.9 mph - - Rain Rain
7:25 AM 44.6 °F 39.7 °F 39.2 °F 81% 29.98 in 6.2 mi NNW 9.2 mph - N/A   Mostly Cloudy
7:55 AM 46.4 °F 41.5 °F 37.4 °F 71% 29.98 in 6.2 mi NNW 10.4 mph - N/A Rain Light Rain Showers
8:00 AM 44 °F - 38 °F 73% 30.00 in 9 mi NW 13.4 mph - - Rain Heavy Rain
8:25 AM 46.4 °F 43.5 °F 39.2 °F 76% 29.98 in 6.2 mi North 5.8 mph - N/A   Mostly Cloudy
8:55 AM 44.6 °F 37.4 °F 37.4 °F 76% 29.98 in 4.3 mi NNW 16.1 mph - N/A Rain Light Rain Showers
9:00 AM 44 °F - 39 °F 76% 30.01 in 6 mi NNW 15.7 mph - - Rain Light Rain Showers
9:25 AM 44.6 °F 40.7 °F 41.0 °F 87% 30.01 in 6.2 mi NNW 6.9 mph - N/A   Scattered Clouds
9:55 AM 46.4 °F 39.8 °F 39.2 °F 76% 30.01 in 6.2 mi North 16.1 mph - N/A Rain Light Rain Showers
10:00 AM 47 °F - 37 °F 57% 30.01 in 19 mi North 17.9 mph - - Rain Rain
10:25 AM 48.2 °F - 39.2 °F 71% 30.01 in 6.2 mi North 12.7 mph 24.2 mph N/A   Scattered Clouds
10:55 AM 48.2 °F - 37.4 °F 66% 30.01 in 6.2 mi North 16.1 mph - N/A   Mostly Cloudy
11:00 AM 50 °F - 39 °F 55% 30.02 in 16 mi North 15.7 mph - -   Partly Cloudy
11:25 AM 50.0 °F - 37.4 °F 62% 30.01 in 6.2 mi NNW 13.8 mph - N/A   Mostly Cloudy
11:55 AM 50.0 °F - 39.2 °F 66% 30.01 in 6.2 mi NNW 15.0 mph - N/A   Mostly Cloudy
12:00 PM 49 °F - 40 °F 61% 30.03 in 25 mi NNW 13.4 mph - -   Partly Cloudy
12:25 PM 50.0 °F - 39.2 °F 66% 30.01 in 6.2 mi NW 15.0 mph - N/A   Mostly Cloudy
12:55 PM 51.8 °F - 41.0 °F 67% 30.01 in 6.2 mi NNW 16.1 mph - N/A Rain Light Rain Showers
1:00 PM 48 °F - 41 °F 69% 30.04 in 11 mi NNW 17.9 mph - - Rain Light Rain Showers
1:25 PM 48.2 °F - 41.0 °F 76% 30.01 in 6.2 mi NNW 16.1 mph - N/A Rain Light Rain Showers
1:55 PM 50.0 °F - 42.8 °F 76% 30.04 in 6.2 mi NNW 15.0 mph - N/A Rain Light Rain Showers
2:00 PM 47 °F - 42 °F 76% 30.04 in 9 mi NNW 15.7 mph - - Rain Light Rain Showers
2:25 PM 50.0 °F - 42.8 °F 76% 30.01 in 6.2 mi NNW 13.8 mph - N/A   Mostly Cloudy
2:55 PM 50.0 °F - 41.0 °F 71% 30.04 in 6.2 mi North 12.7 mph - N/A   Mostly Cloudy
3:00 PM 51 °F - 43 °F 65% 30.04 in 22 mi North 11.2 mph - - Rain Rain
3:25 PM 51.8 °F - 42.8 °F 71% 30.04 in 6.2 mi NNW 15.0 mph - N/A   Scattered Clouds
3:55 PM 51.8 °F - 39.2 °F 62% 30.04 in 6.2 mi North 13.8 mph - N/A   Scattered Clouds
4:00 PM 50 °F - 38 °F 53% 30.05 in 18 mi North 15.7 mph - -   Partly Cloudy
4:25 PM 50.0 °F - 39.2 °F 66% 30.04 in 6.2 mi North 17.3 mph - N/A   Mostly Cloudy
4:55 PM 50.0 °F - 37.4 °F 62% 30.04 in 6.2 mi North 18.4 mph - N/A   Mostly Cloudy
5:00 PM 49 °F - 37 °F 54% 30.06 in 16 mi North 17.9 mph - -   Partly Cloudy
5:25 PM 48.2 °F - 39.2 °F 71% 30.04 in 6.2 mi North 13.8 mph - N/A   Mostly Cloudy
5:55 PM 48.2 °F - 39.2 °F 71% 30.04 in 6.2 mi North 17.3 mph - N/A   Mostly Cloudy
6:00 PM 48 °F - 39 °F 61% 30.06 in 12 mi North 15.7 mph - -   Partly Cloudy
6:25 PM 48.2 °F - 39.2 °F 71% 30.04 in 6.2 mi North 12.7 mph - N/A   Mostly Cloudy
6:55 PM 48.2 °F - 37.4 °F 66% 30.04 in 6.2 mi North 15.0 mph - N/A   Mostly Cloudy
7:00 PM 48 °F - 38 °F 57% 30.06 in 12 mi North 15.7 mph - -   Partly Cloudy
7:25 PM 48.2 °F - 39.2 °F 71% 30.04 in 6.2 mi North 16.1 mph - N/A   Mostly Cloudy
7:55 PM 48.2 °F - 39.2 °F 71% 30.04 in 6.2 mi North 11.5 mph - N/A   Mostly Cloudy
8:00 PM 47 °F - 39 °F 64% 30.06 in 11 mi North 13.4 mph - -   Partly Cloudy
8:25 PM 46.4 °F 40.4 °F 39.2 °F 76% 30.04 in 6.2 mi North 13.8 mph - N/A   Mostly Cloudy
8:55 PM 46.4 °F 41.1 °F 39.2 °F 76% 30.04 in 6.2 mi North 11.5 mph - N/A   Mostly Cloudy
9:00 PM 47 °F - 40 °F 67% 30.06 in 9 mi North 11.2 mph - -   Overcast
9:25 PM 46.4 °F 40.7 °F 39.2 °F 76% 30.04 in 6.2 mi North 12.7 mph - N/A   Mostly Cloudy
9:55 PM 46.4 °F 40.7 °F 39.2 °F 76% 30.06 in 6.2 mi North 12.7 mph - N/A   Mostly Cloudy
10:00 PM 46 °F - 39 °F 68% 30.07 in 10 mi North 11.2 mph - -   Overcast
10:25 PM 46.4 °F 41.1 °F 39.2 °F 76% 30.06 in 6.2 mi North 11.5 mph - N/A   Mostly Cloudy
10:55 PM 44.6 °F 39.2 °F 39.2 °F 81% 30.06 in 6.2 mi North 10.4 mph - N/A   Mostly Cloudy
11:00 PM 45 °F - 39 °F 73% 30.07 in 10 mi NNW 8.9 mph - -   Mostly Cloudy
11:25 PM 46.4 °F 41.9 °F 39.2 °F 76% 30.06 in 6.2 mi NNW 9.2 mph - N/A   Mostly Cloudy
11:55 PM 44.6 °F 39.2 °F 39.2 °F 81% 30.04 in 6.2 mi NNW 10.4 mph - N/A   Partly Cloudy